Location: Pisa
(43.7170°N, 10.3830°E)
Time: 12:07:20
(UTC+02:00)

ISS - Pass Details

Date: 11 May 2021
Orbit: 417 x 422 km, 51.6° (Epoch: 18 June)

Event Time Altitude Azimuth Distance (km) Brightness Sun altitude
Exits shadow 02:02:50 23° 13° (NNE) 959 -1.3 -27.4°
Drops below altitude 10° 02:04:50 10° 45° (NE) 1,510 -0.2 -27.3°
Sets 02:07:10 0° 59° (ENE) 2,377 0.7 -27.2°
